Location: Bidart
(43.4376°N, 1.5913°W)
Time: 18:37:09
(UTC+00:00)

Meteor 1-27 Rocket - Pass Details

Date: 19 May 2025
Orbit: 830 x 908 km, 81.3° (Epoch: 22 June)

Event Time Altitude Azimuth Distance (km) Brightness Sun altitude
Exits shadow 22:30:54 48° 119° (ESE) 1,102 3.9 -23.2°
Maximum altitude 22:31:37 51° 94° (E) 1,060 4.0 -23.2°
Drops below altitude 10° 22:36:58 10° 20° (NNE) 2,459 6.7 -23.6°
Sets 22:39:26 0° 16° (NNE) 3,391 7.6 -23.7°
